Starlink 11298

operational
NORAD ID: 61211 Int'l Des: 2024-171 Owner: SPXS Country: US Constellation: starlink
LEOCIRCULAR

About Starlink 11298

Description loading...

Live Position

Loading 3D Globe...

Upcoming Passes

Altitude History

Altitude vs Time

uPlot chart will show altitude changes over time

Two-Line Element Set

1 61211U 24171M 25351.04075925 -.00002910 00000-0 -19159-4 0 9997
2 61211 53.1598 223.9918 0001272 109.3061 250.8094 15.69714074 71415
Epoch: Dec 17, 2025 • Age: 13 hours

Current Status

Altitude 359.6 km
Velocity 7.70 km/s
Sub-Earth Point 6.05°N, 101.35°E
Launch Date Sep 20, 2024
Age 1.2 years
Type internet

Technical Details

Classification Payload
Mass 960.00 kg
Dry Mass 910.00 kg
Total Mass 960.00 kg
Length 0.30 m
Diameter 4.10 m
Span 29.00 m
Shape Box + pan
Manufacturer SPXS
Bus Type Starlink V2MD
Phase Status In Orbit
Owner/State SPXS/US

Large Constellations

Loading constellations...